Eveleth, MN

5:58 AM CDT on May 26, 2017 (GMT -0500)
Eveleth-Virginia Municipal

Weather History for KEVM - June, 2014

Change the Weather History Date:

Wednesday, June 11, 2014

  Actual Average Record
Temperature  
Mean Temperature 58 °F -  
Max Temperature 73 °F 69 °F 85 °F (1988)
Min Temperature 42 °F 46 °F 33 °F (2006)
Degree Days  
Heating Degree Days 8    
Growing Degree Days 8 (Base 50)    
Moisture  
Dew Point 48 °F    
Average Humidity 73    
Maximum Humidity 100    
Minimum Humidity 35    
Precipitation  
Precipitation 0.56 in - - ()
Sea Level Pressure  
Sea Level Pressure 29.83 in    
Wind  
Wind Speed 3 mph (SSE)    
Max Wind Speed 13 mph    
Max Gust Speed 17 mph    
Visibility 9 miles    
Events Rain , Thunderstorm    
Averages and records for this station are not official NWS values.
T = Trace of Precipitation, MM = Missing Value Source: NWS Daily Summary

Daily Weather History Graph

Daily Weather History Graph

Search for Another Location

Airport or City:

Trip Planner

Search our weather history database for the weather conditions in past years. The results will help you decide how hot, cold, wet, or windy it might be!

Date:

Astronomy

Jun. 11, 2014 Rise Set
Actual Time 5:12 AM CDT 9:06 PM CDT
Civil Twilight 4:32 AM CDT 9:46 PM CDT
Nautical Twilight 3:37 AM CDT 10:41 PM CDT
Astronomical Twilight 2:14 AM CDT 12:06 AM CDT
Moon 7:29 PM CDT (6/11) 4:11 AM CDT (6/11)
Length of Visible Light 17h 13m
Length of Day
15h 53m
Waxing Gibbous, 97% of the Moon is Illuminated
Jun 11
Waxing Gibbous
Jun 12
Full
Jun 19
Last Quarter
Jun 27
New
Jul 5
First Quarter

Hourly Weather History & Observations

Time (CDT) Temp. Dew Point Humidity Pressure Visibility Wind Dir Wind Speed Gust Speed Precip Events Conditions
12:13 AM 51.8 °F 44.6 °F 76% 29.90 in 10.0 mi ENE 3.5 mph - N/A   Clear
12:33 AM 51.8 °F 44.6 °F 76% 29.90 in 10.0 mi Calm Calm - N/A   Clear
12:53 AM 51.8 °F 44.6 °F 76% 29.90 in 10.0 mi NE 3.5 mph - N/A   Clear
1:13 AM 51.8 °F 46.4 °F 82% 29.90 in 10.0 mi Calm Calm - N/A   Clear
1:33 AM 46.4 °F 44.6 °F 93% 29.89 in 10.0 mi Calm Calm - N/A   Clear
1:53 AM 44.6 °F 42.8 °F 93% 29.89 in 10.0 mi Calm Calm - N/A   Clear
2:13 AM 44.6 °F 44.6 °F 100% 29.89 in 10.0 mi Calm Calm - N/A   Clear
2:33 AM 44.6 °F 44.6 °F 100% 29.89 in 10.0 mi Calm Calm - N/A   Clear
2:53 AM 44.6 °F 44.6 °F 100% 29.90 in 10.0 mi Calm Calm - N/A   Clear
3:13 AM 44.6 °F 42.8 °F 93% 29.90 in 10.0 mi Calm Calm - N/A   Clear
3:33 AM 44.6 °F 42.8 °F 93% 29.90 in 10.0 mi Calm Calm - N/A   Clear
3:53 AM 44.6 °F 42.8 °F 93% 29.91 in 10.0 mi Calm Calm - N/A   Clear
4:13 AM 44.6 °F 42.8 °F 93% 29.90 in 10.0 mi Calm Calm - N/A   Clear
4:33 AM 44.6 °F 42.8 °F 93% 29.90 in 10.0 mi Calm Calm - N/A   Clear
4:53 AM 42.8 °F 42.8 °F 100% 29.89 in 10.0 mi Calm Calm - N/A   Clear
5:13 AM 42.8 °F 41.0 °F 93% 29.89 in 10.0 mi Calm Calm - N/A   Mostly Cloudy
5:33 AM 42.8 °F 42.8 °F 100% 29.89 in 10.0 mi Calm Calm - N/A   Mostly Cloudy
5:53 AM 44.6 °F 42.8 °F 93% 29.89 in 10.0 mi Calm Calm - N/A   Mostly Cloudy
6:13 AM 46.4 °F 44.6 °F 93% 29.88 in 10.0 mi Calm Calm - N/A   Mostly Cloudy
6:33 AM 50.0 °F 48.2 °F 94% 29.89 in 10.0 mi Calm Calm - N/A   Overcast
6:53 AM 51.8 °F 48.2 °F 88% 29.89 in 10.0 mi Calm Calm - N/A   Mostly Cloudy
7:13 AM 51.8 °F 46.4 °F 82% 29.88 in 10.0 mi Calm Calm - N/A   Clear
7:33 AM 53.6 °F 48.2 °F 82% 29.88 in 10.0 mi Calm Calm - N/A   Clear
7:53 AM 57.2 °F 50.0 °F 77% 29.87 in 10.0 mi Calm Calm - N/A   Mostly Cloudy
8:13 AM 57.2 °F 50.0 °F 77% 29.87 in 10.0 mi Calm Calm - N/A   Overcast
8:33 AM 57.2 °F 50.0 °F 77% 29.87 in 10.0 mi Calm Calm - N/A   Scattered Clouds
8:53 AM 59.0 °F 50.0 °F 72% 29.87 in 10.0 mi Calm Calm - N/A   Clear
9:33 AM 64.4 °F 50.0 °F 59% 29.86 in 10.0 mi Calm Calm - N/A   Clear
9:53 AM 66.2 °F 50.0 °F 56% 29.86 in 10.0 mi South 4.6 mph - N/A   Clear
10:13 AM 71.6 °F 53.6 °F 53% 29.86 in 10.0 mi SSW 5.8 mph - N/A   Clear
10:33 AM 71.6 °F 51.8 °F 50% 29.85 in 10.0 mi SSE 4.6 mph - N/A   Clear
10:53 AM 71.6 °F 48.2 °F 43% 29.85 in 10.0 mi South 9.2 mph - N/A   Clear
11:13 AM 71.6 °F 48.2 °F 43% 29.84 in 10.0 mi South 8.1 mph - N/A   Clear
11:33 AM 71.6 °F 44.6 °F 38% 29.84 in 7.0 mi SE 9.2 mph - N/A   Clear
11:53 AM 71.6 °F 44.6 °F 38% 29.84 in 10.0 mi SSE 6.9 mph - N/A   Clear
12:13 PM 71.6 °F 44.6 °F 38% 29.84 in 10.0 mi SSE 8.1 mph 16.1 mph N/A   Clear
12:33 PM 71.6 °F 44.6 °F 38% 29.83 in 10.0 mi SE 10.4 mph - N/A   Clear
12:53 PM 71.6 °F 44.6 °F 38% 29.83 in 10.0 mi SE 9.2 mph - N/A   Clear
1:13 PM 71.6 °F 44.6 °F 38% 29.82 in 10.0 mi SSE 9.2 mph - N/A   Clear
1:33 PM 73.4 °F 44.6 °F 36% 29.81 in 10.0 mi South 12.7 mph - N/A   Clear
1:54 PM 71.6 °F 42.8 °F 35% 29.81 in 10.0 mi South 11.5 mph - N/A   Clear
2:13 PM 71.6 °F 44.6 °F 38% 29.81 in 10.0 mi South 10.4 mph - N/A   Scattered Clouds
2:33 PM 71.6 °F 44.6 °F 38% 29.81 in 10.0 mi South 11.5 mph 17.3 mph N/A   Clear
3:13 PM 71.6 °F 48.2 °F 43% 29.81 in 10.0 mi South 6.9 mph - N/A   Mostly Cloudy
3:33 PM 69.8 °F 46.4 °F 43% 29.81 in 10.0 mi South 8.1 mph - N/A   Overcast
3:53 PM 69.8 °F 46.4 °F 43% 29.81 in 10.0 mi South 6.9 mph - N/A   Overcast
4:13 PM 69.8 °F 50.0 °F 49% 29.80 in 10.0 mi SSE 5.8 mph - N/A   Overcast
4:33 PM 69.8 °F 50.0 °F 49% 29.79 in 10.0 mi SSE 6.9 mph - N/A Rain Light Rain
4:53 PM 68.0 °F 50.0 °F 52% 29.79 in 10.0 mi South 5.8 mph - N/A   Light Drizzle
5:13 PM 66.2 °F 50.0 °F 56% 29.78 in 10.0 mi SSW 5.8 mph - N/A   Overcast
5:53 PM 62.6 °F 53.6 °F 72% 29.77 in 10.0 mi WNW 3.5 mph - N/A   Overcast
6:13 PM 62.6 °F 55.4 °F 77% 29.76 in 10.0 mi Calm Calm - N/A   Overcast
6:33 PM 62.6 °F 55.4 °F 77% 29.76 in 10.0 mi NW 4.6 mph - N/A   Overcast
6:53 PM 62.6 °F 55.4 °F 77% 29.75 in 10.0 mi Calm Calm - N/A   Overcast
7:13 PM 62.6 °F 55.4 °F 77% 29.74 in 10.0 mi Calm Calm - N/A   Mostly Cloudy
7:33 PM 62.6 °F 55.4 °F 77% 29.75 in 10.0 mi Calm Calm - N/A   Mostly Cloudy
7:53 PM 62.6 °F 55.4 °F 77% 29.75 in 10.0 mi Calm Calm - N/A Rain Light Rain
8:13 PM 60.8 °F 57.2 °F 88% 29.76 in 10.0 mi Calm Calm - N/A Rain Light Rain
8:34 PM 59.0 °F 57.2 °F 94% 29.78 in 7.0 mi South 4.6 mph - 0.03 in Rain Rain
8:53 PM 59.0 °F 55.4 °F 88% 29.77 in 7.0 mi SE 5.8 mph - 0.06 in Rain , Thunderstorm Rain
9:13 PM 57.2 °F 53.6 °F 88% 29.78 in 10.0 mi SSE 6.9 mph - 0.01 in Rain Rain
9:34 PM 57.2 °F 53.6 °F 88% 29.77 in 4.0 mi ESE 3.5 mph - 0.07 in Rain Rain
9:53 PM 57.2 °F 53.6 °F 88% 29.77 in 4.0 mi ESE 5.8 mph - 0.14 in Rain Rain
10:13 PM 55.4 °F 53.6 °F 94% 29.77 in 4.0 mi Calm Calm - 0.05 in Rain Rain
10:34 PM 53.6 °F 51.8 °F 94% 29.77 in 3.0 mi Calm Calm - 0.16 in Rain Heavy Rain
10:53 PM 53.6 °F 53.6 °F 100% 29.77 in 3.0 mi ESE 4.6 mph - 0.26 in Rain Heavy Rain
11:13 PM 53.6 °F 51.8 °F 94% 29.74 in 5.0 mi Calm Calm - 0.06 in Rain Light Rain
11:34 PM 53.6 °F 51.8 °F 94% 29.73 in 7.0 mi East 3.5 mph - 0.07 in Rain Rain
11:53 PM 53.6 °F 51.8 °F 94% 29.72 in 5.0 mi East 5.8 mph - 0.10 in Rain Rain